sat.trackr.live / text

‹ back to catalog

STARLINK-36152

NORAD 66968 · 2025-288K

PAYLOAD ACTIVE UNKNOWN

§ Identity

Operator
Country
US
Launch date
2025-12-08
Launch site
AFETR
Launch vehicle
Mass (kg)
RCS (m²)

Purposes: comms

External: N2YO · Heavens-Above · Gunter

§ Orbital elements

Epoch: 2026-09-20T08:06:24.636096Z

Period
94.27 min
Inclination
43.0003°
Eccentricity
0.0001157
Mean motion
15.27586392 rev/d
Perigee alt
482.2 km
Apogee alt
483.8 km
Semi-major
6,861.2 km
B*
3.1275e-4
RAAN
4.4103°
Arg perigee
254.7250°
Mean anomaly
105.3474°
Rev number
4,505

§ Raw data

STARLINK-361521 66968U 25288K   26263.33778514  .00008356  00000+0  31275-3 0  99992 66968  43.0003   4.4103 0001157 254.7250 105.3474 15.27586392 45054

JSON: /api/v1/satellites/66968 · /tle

For live sub-satellite position, see the globe view (requires WebGL).

§ Visibility from observer

Set your observer location to see the next 7 days of passes ≥ 10°. The values pass through the URL so the page stays shareable.

No JS? Fill the form by hand. The geolocation button needs JavaScript.